Regional Weather Roundup
Issued by NWS

Home | Current Version | Previous Version | Text Only | Print | Product List | Glossary Off
Versions: 1 2 3 4 5 6 7 8 9 10 11 12 13 14 15 16 17 18 19 20 21 22 23 24 25 26 27 28 29 30 31 32 33 34 35 36 37 38 39 40 41 42 43 44 45 46 47 48 49 50

194
ASUS43 KLMK 271002
RWRKY
KENTUCKY REGIONAL WEATHER ROUNDUP
NATIONAL WEATHER SERVICE LOUISVILLE KY
600 AM EDT THU JUL 27 2017

NOTE "FAIR" INDICATES FEW OR NO CLOUDS BELOW 12,000 FEET
WITH NO SIGNIFICANT WEATHER AND/OR OBSTRUCTIONS TO VISIBILITY.

KYZ001>023-026-027-061>063-070>075-271100-
WESTERN AND SOUTH CENTRAL KENTUCKY

CITY           SKY/WX    TMP DP  RH WIND       PRES   REMARKS
PADUCAH        PTCLDY    78  73  84 SW3       29.95F
HENDERSON      NOT AVBL
OWENSBORO      CLOUDY    76  74  93 SW3       29.96S
HOPKINSVILLE   PTCLDY    78  76  93 S6        29.99R
BOWLING GREEN  CLOUDY    79  76  90 W5        29.99R
GLASGOW        NOT AVBL
$$

KYZ024-025-028>034-038-045-046-053-271100-
NORTH CENTRAL KENTUCKY

CITY           SKY/WX    TMP DP  RH WIND       PRES   REMARKS
LOUISVILLE/SDF CLOUDY    80  72  76 SW6       29.96R
LOUISVILLE/LOU CLOUDY    79  74  84 S3        29.97R
FORT KNOX      MOCLDY    75  73  91 SW5       29.96R
$$

KYZ035>037-039>044-047>052-055>060-089>105-271100-
NORTHEAST KENTUCKY

CITY           SKY/WX    TMP DP  RH WIND       PRES   REMARKS
LEXINGTON      CLOUDY    76  71  85 SW6       29.99S
COVINGTON      CLOUDY    73  72  96 S5        29.95F
FRANKFORT      MOCLDY    77  71  82 S3        29.97R
$$

KYZ054-064>069-076>088-106>120-271100-
SOUTHEAST KENTUCKY

CITY           SKY/WX    TMP DP  RH WIND       PRES   REMARKS
JACKSON        CLOUDY    73  69  87 CALM      30.02F
LONDON         PTCLDY    72  69  90 CALM      30.03S
SOMERSET       CLOUDY    70  70 100 CALM      30.03R
MIDDLESBORO    RAIN      70  70 100 SE3       30.06S
MONTICELLO     CLOUDY    71  71 100 W5        30.04R
$$





USA.gov is the U.S. government's official web portal to all federal, state and local government web resources and services.